Regional Weather Roundup
Issued by NWS

Home | Current Version | Previous Version | Text Only | Print | Product List | Glossary Off
Versions: 1 2 3 4 5 6 7 8 9 10 11 12 13 14 15 16 17 18 19 20 21 22 23 24 25 26 27 28 29 30 31 32 33 34 35 36 37 38 39 40 41 42 43 44 45 46 47 48 49 50

000
ASUS43 KFSD 182210
RWRSD

WEATHER ROUNDUP FOR SOUTH DAKOTA
NATIONAL WEATHER SERVICE SIOUX FALLS SD
400 PM CST SUN FEB 18 2018

NOTE: "FAIR" INDICATES FEW OR NO CLOUDS BELOW 12,000 FEET WITH NO
SIGNIFICANT WEATHER AND/OR OBSTRUCTIONS TO VISIBILITY.


SDZ001>005-009-010-012>017-182300-
NORTHWEST AND NORTH CENTRAL SOUTH DAKOTA

CITY           SKY/WX    TMP DP  RH WIND       PRES   REMARKS
BUFFALO          N/A     10   3  73 N23       29.73R WCI -10
FAITH            N/A     11   8  88 N30       29.75R WCI -11
MOBRIDGE       LGT SNOW  18  12  77 N22G29    29.76R WCI   1
$$

SDZ012>016-024>037-041>051-057-063-072>074-182300-
SOUTHWEST AND SOUTH CENTRAL SOUTH DAKOTA

CITY           SKY/WX    TMP DP  RH WIND       PRES   REMARKS
RAPID CTY ARPT LGT SNOW  10   6  84 N24G36    29.74R VSB 1   WCI -10
PIERRE         MIX PCPN  19  16  88 N24       29.72R FOG     WCI   2
CUSTER         FOG       22  20  92 VRB6      29.50R VSB 1/4 WCI  14
ELLSWORTH AFB  BLWGSNOW  11   8  91 N20G29    29.72  VSB 1/4 WCI  -8
PHILIP         LGT SNOW  16  11  80 N21       29.76R WCI  -1
PINE RIDGE     FLURRIES  21  16  81 N22G32    29.67R WCI   5
SPEARFISH      SNOW       9   5  85 NW12G20   29.73R VSB 1/2 WCI  -6
WINNER         CLOUDY    28  22  78 NW21      29.68R WCI  15
$$

SDZ004>011-016>023-039-040-182300-
NORTHEAST SOUTH DAKOTA

CITY           SKY/WX    TMP DP  RH WIND       PRES   REMARKS
ABERDEEN       CLOUDY    20  12  71 N24G33    29.72R WCI   3
WATERTOWN      CLOUDY    29  22  75 N17       29.59R WCI  17
BROOKINGS      CLOUDY    40  28  62 N15       29.54R
SISSETON         N/A     24  17  74 N25G33    29.68R WCI   8
$$

SDZ017-020-022-023-036>040-048>070-182300-
SOUTHEAST SOUTH DAKOTA

CITY           SKY/WX    TMP DP  RH WIND       PRES   REMARKS
SIOUX FALLS    CLOUDY    44  31  60 W7G17     29.54R
HURON          CLOUDY    28  21  75 N24G31    29.65R WCI  14
CHAMBERLAIN    CLOUDY    30  25  84 NW15G22   29.68R WCI  19
MITCHELL       CLOUDY    32  26  78 NW23G30   29.62R WCI  19
YANKTON        CLOUDY    40  31  70 NW21      29.56R
$$

ABBREVIATIONS USED IN REMARKS
   TC - TEMPERATURE IN CELSIUS
  WCI - WIND CHILL INDEX
   HX - HEAT INDEX
  VSB - VISIBILITY





USA.gov is the U.S. government's official web portal to all federal, state and local government web resources and services.